Total_Precipitation_Accumulation
1.22 1.18 1.06 0.86 0.75 0.75 0.77 0.72 0.65 0.68 0.65 0.67 0.64 0.66 0.73 0.71 0.68 0.74 0.75 0.73 0.75 0.79 0.79 0.79 0.88 0.96 0.99 0.99 0.98 0.91 0.85 0.78 0.65 0.55 0.36 0.27 0.28 0.27 0.27 0.19 0.13 0.10 0.11
0.93 0.84 0.72 0.57 0.51 0.56 0.57 0.52 0.44 0.46 0.44 0.51 0.54 0.52 0.63 0.76 0.78 0.77 0.73 0.66 0.62 0.60 0.58 0.60 0.65 0.70 0.74 0.79 0.83 0.81 0.80 0.77 0.68 0.62 0.49 0.37 0.37 0.34 0.36 0.32 0.25 0.20 0.22
0.87 0.72 0.64 0.57 0.54 0.53 0.47 0.40 0.32 0.30 0.33 0.38 0.50 0.48 0.50 0.63 0.74 0.71 0.64 0.60 0.56 0.52 0.52 0.51 0.49 0.54 0.59 0.61 0.66 0.73 0.75 0.70 0.66 0.58 0.59 0.55 0.44 0.37 0.36 0.34 0.34 0.39 0.37
1.05 0.84 0.72 0.66 0.56 0.47 0.37 0.34 0.29 0.31 0.36 0.35 0.34 0.35 0.40 0.48 0.59 0.56 0.51 0.50 0.46 0.44 0.46 0.46 0.43 0.45 0.47 0.50 0.55 0.64 0.71 0.72 0.67 0.58 0.55 0.55 0.49 0.42 0.37 0.38 0.47 0.56 0.54
0.73 0.54 0.46 0.44 0.39 0.31 0.25 0.23 0.22 0.22 0.22 0.24 0.20 0.20 0.25 0.32 0.36 0.34 0.35 0.38 0.42 0.43 0.42 0.40 0.41 0.37 0.36 0.40 0.40 0.49 0.56 0.65 0.68 0.68 0.63 0.56 0.49 0.43 0.40 0.43 0.47 0.57 0.59
0.35 0.29 0.25 0.21 0.18 0.16 0.15 0.15 0.11 0.09 0.09 0.14 0.14 0.15 0.18 0.20 0.22 0.19 0.21 0.30 0.38 0.40 0.39 0.40 0.37 0.36 0.33 0.28 0.23 0.25 0.34 0.42 0.50 0.58 0.64 0.61 0.58 0.52 0.51 0.51 0.48 0.47 0.52
0.08 0.07 0.06 0.07 0.07 0.06 0.06 0.07 0.07 0.06 0.06 0.08 0.08 0.12 0.15 0.12 0.10 0.08 0.19 0.33 0.38 0.36 0.33 0.40 0.45 0.43 0.45 0.44 0.34 0.26 0.26 0.25 0.26 0.34 0.45 0.53 0.54 0.55 0.50 0.51 0.54 0.57 0.50
0.01 0.01 0.01 0.02 0.03 0.04 0.05 0.05 0.03 0.02 0.03 0.07 0.08 0.14 0.13 0.08 0.06 0.07 0.14 0.24 0.32 0.32 0.29 0.37 0.51 0.56 0.58 0.59 0.49 0.44 0.37 0.30 0.25 0.24 0.34 0.39 0.41 0.47 0.52 0.58 0.56 0.48 0.41
0.00 0.00 0.00 0.00 0.01 0.02 0.02 0.02 0.01 0.01 0.02 0.05 0.08 0.10 0.06 0.03 0.03 0.05 0.11 0.25 0.34 0.35 0.28 0.35 0.51 0.58 0.66 0.67 0.60 0.61 0.51 0.36 0.30 0.32 0.30 0.28 0.32 0.39 0.43 0.49 0.50 0.43 0.37
0.00 0.00 0.00 0.00 0.00 0.01 0.01 0.01 0.01 0.01 0.01 0.02 0.04 0.06 0.04 0.03 0.03 0.03 0.07 0.16 0.26 0.31 0.30 0.35 0.54 0.59 0.60 0.57 0.55 0.69 0.68 0.51 0.33 0.32 0.34 0.37 0.36 0.43 0.55 0.62 0.69 0.62 0.47
0.00 0.00 0.00 0.00 0.00 0.02 0.03 0.02 0.01 0.01 0.01 0.01 0.02 0.03 0.03 0.02 0.02 0.03 0.07 0.08 0.12 0.16 0.21 0.24 0.26 0.40 0.43 0.42 0.51 0.60 0.67 0.48 0.35 0.43 0.52 0.50 0.46 0.43 0.47 0.55 0.65 0.72 0.63
0.00 0.00 0.00 0.01 0.01 0.02 0.05 0.04 0.02 0.01 0.01 0.01 0.02 0.03 0.03 0.03 0.03 0.03 0.04 0.05 0.06 0.10 0.12 0.16 0.18 0.29 0.34 0.35 0.41 0.44 0.46 0.45 0.41 0.48 0.46 0.37 0.36 0.34 0.29 0.30 0.36 0.42 0.40
0.00 0.00 0.00 0.00 0.01 0.02 0.02 0.02 0.02 0.01 0.01 0.01 0.02 0.03 0.04 0.05 0.03 0.02 0.02 0.03 0.03 0.05 0.07 0.12 0.15 0.22 0.23 0.26 0.33 0.34 0.38 0.48 0.52 0.44 0.36 0.27 0.23 0.20 0.18 0.21 0.25 0.27 0.25
0.00 0.00 0.00 0.00 0.01 0.02 0.01 0.01 0.01 0.01 0.01 0.02 0.02 0.03 0.04 0.07 0.03 0.01 0.02 0.04 0.05 0.07 0.08 0.11 0.14 0.20 0.21 0.22 0.28 0.35 0.42 0.47 0.54 0.41 0.25 0.17 0.15 0.14 0.14 0.15 0.17 0.17 0.20
0.00 0.00 0.00 0.00 0.01 0.02 0.01 0.00 0.00 0.00 0.00 0.01 0.01 0.03 0.02 0.02 0.01 0.01 0.02 0.03 0.07 0.07 0.11 0.17 0.26 0.34 0.33 0.34 0.39 0.44 0.45 0.39 0.38 0.32 0.24 0.21 0.20 0.18 0.13 0.10 0.09 0.10 0.12
0.00 0.00 0.00 0.00 0.01 0.01 0.02 0.01 0.00 0.00 0.01 0.01 0.00 0.01 0.01 0.01 0.01 0.04 0.07 0.06 0.07 0.09 0.17 0.21 0.32 0.45 0.45 0.47 0.48 0.49 0.49 0.45 0.40 0.32 0.27 0.22 0.19 0.15 0.13 0.11 0.09 0.12 0.12
0.00 0.00 0.00 0.00 0.00 0.00 0.01 0.03 0.02 0.01 0.00 0.00 0.00 0.00 0.00 0.01 0.02 0.03 0.06 0.08 0.11 0.18 0.18 0.23 0.40 0.45 0.40 0.41 0.45 0.45 0.37 0.29 0.26 0.22 0.16 0.11 0.08 0.06 0.06 0.07 0.07 0.07 0.05
0.00 0.00 0.00 0.00 0.00 0.00 0.00 0.01 0.01 0.03 0.04 0.03 0.01 0.00 0.00 0.00 0.01 0.02 0.04 0.07 0.14 0.19 0.21 0.33 0.47 0.49 0.42 0.34 0.28 0.21 0.16 0.11 0.09 0.08 0.06 0.04 0.03 0.02 0.02 0.02 0.02 0.01 0.01
0.00 0.00 0.00 0.00 0.00 0.00 0.00 0.00 0.00 0.01 0.01 0.03 0.03 0.02 0.01 0.01 0.01 0.01 0.02 0.05 0.08 0.10 0.16 0.25 0.33 0.38 0.32 0.18 0.09 0.06 0.04 0.03 0.03 0.03 0.03 0.02 0.02 0.02 0.01 0.01 0.01 0.01 0.01
0.00 0.00 0.00 0.00 0.00 0.00 0.00 0.00 0.00 0.00 0.01 0.01 0.01 0.01 0.02 0.02 0.02 0.02 0.01 0.02 0.04 0.04 0.05 0.07 0.09 0.09 0.06 0.03 0.02 0.01 0.01 0.01 0.01 0.01 0.01 0.01 0.01 0.01 0.02 0.02 0.02 0.03 0.03
0.00 0.00 0.00 0.00 0.00 0.00 0.00 0.01 0.01 0.01 0.01 0.01 0.00 0.00 0.00 0.01 0.01 0.01 0.01 0.01 0.01 0.01 0.01 0.01 0.01 0.01 0.00 0.00 0.00 0.00 0.00 0.01 0.01 0.01 0.01 0.01 0.01 0.01 0.02 0.02 0.02 0.02 0.02
0.00 0.00 0.00 0.00 0.00 0.00 0.00 0.00 0.01 0.01 0.01 0.01 0.01 0.00 0.00 0.01 0.01 0.01 0.01 0.01 0.01 0.01 0.01 0.01 0.00 0.00 0.00 0.00 0.00 0.00 0.00 0.00 0.00 0.01 0.01 0.01 0.01 0.01 0.01 0.01 0.01 0.01 0.01
0.00 0.00 0.00 0.00 0.00 0.00 0.00 0.00 0.00 0.01 0.01 0.01 0.01 0.01 0.00 0.01 0.01 0.01 0.01 0.01 0.01 0.00 0.00 0.00 0.00 0.00 0.00 0.00 0.00 0.00 0.00 0.00 0.01 0.01 0.01 0.01 0.02 0.02 0.01 0.01 0.01 0.00 0.00
0.00 0.00 0.00 0.00 0.00 0.00 0.00 0.00 0.00 0.00 0.00 0.01 0.01 0.01 0.01 0.01 0.01 0.01 0.01 0.01 0.00 0.00 0.00 0.00 0.00 0.00 0.00 0.00 0.00 0.00 0.00 0.00 0.00 0.01 0.01 0.01 0.02 0.01 0.01 0.01 0.01 0.01 0.00
0.00 0.00 0.00 0.00 0.00 0.00 0.00 0.00 0.00 0.00 0.00 0.00 0.01 0.01 0.01 0.01 0.01 0.01 0.00 0.00 0.00 0.00 0.00 0.00 0.00 0.00 0.00 0.00 0.00 0.00 0.01 0.01 0.01 0.00 0.00 0.01 0.01 0.01 0.01 0.01 0.01 0.00 0.00
0.00 0.00 0.00 0.00 0.00 0.00 0.00 0.00 0.00 0.00 0.00 0.01 0.01 0.01 0.01 0.01 0.01 0.01 0.00 0.00 0.00 0.00 0.00 0.00 0.00 0.00 0.00 0.00 0.00 0.00 0.00 0.00 0.00 0.00 0.00 0.00 0.00 0.00 0.00 0.00 0.00 0.00 0.00